TimeEDT,TemperatureF,Dew PointF,Humidity,Sea Level PressureIn,VisibilityMPH,Wind Direction,Wind SpeedMPH,Gust SpeedMPH,PrecipitationIn,Events,Conditions,WindDirDegrees,DateUTC
12:52 AM,71.1,69.1,93,29.93,9.0,South,4.6,-,N/A,,Partly Cloudy,190,2013-08-07 04:52:00
1:52 AM,71.1,69.1,93,29.93,8.0,South,3.5,-,N/A,,Scattered Clouds,190,2013-08-07 05:52:00
2:52 AM,69.1,69.1,100,29.93,6.0,Calm,Calm,-,N/A,,Partly Cloudy,0,2013-08-07 06:52:00
3:52 AM,70.0,70.0,100,29.92,6.0,SSW,4.6,-,N/A,,Partly Cloudy,200,2013-08-07 07:52:00
4:22 AM,71.6,71.6,100,29.95,5.0,SSW,5.8,-,N/A,,Mostly Cloudy,200,2013-08-07 08:22:00
4:52 AM,71.1,71.1,100,29.91,5.0,SSW,3.5,-,N/A,,Overcast,200,2013-08-07 08:52:00
5:52 AM,71.1,70.0,96,29.91,4.0,Calm,Calm,-,N/A,,Mostly Cloudy,0,2013-08-07 09:52:00
6:00 AM,71.6,71.6,100,29.94,2.5,Calm,Calm,-,N/A,,Mostly Cloudy,0,2013-08-07 10:00:00
6:09 AM,71.6,69.8,94,29.94,4.0,Calm,Calm,-,N/A,,Scattered Clouds,0,2013-08-07 10:09:00
6:31 AM,69.8,69.8,100,29.94,2.0,South,5.8,-,N/A,,Scattered Clouds,170,2013-08-07 10:31:00
6:46 AM,71.6,71.6,100,29.94,1.0,South,3.5,-,N/A,,Overcast,190,2013-08-07 10:46:00
6:52 AM,71.1,71.1,100,29.91,1.0,South,3.5,-,N/A,,Overcast,180,2013-08-07 10:52:00
6:54 AM,71.6,71.6,100,29.94,0.2,South,3.5,-,N/A,,Overcast,190,2013-08-07 10:54:00
7:11 AM,71.6,71.6,100,29.94,0.2,South,3.5,-,N/A,Fog,Fog,190,2013-08-07 11:11:00
7:52 AM,72.0,72.0,100,29.92,0.1,SSW,8.1,-,N/A,Fog,Fog,200,2013-08-07 11:52:00
8:28 AM,71.6,71.6,100,29.95,0.1,SW,4.6,-,N/A,Fog,Fog,230,2013-08-07 12:28:00
8:52 AM,73.0,73.0,100,29.94,0.2,SW,6.9,-,N/A,Fog,Fog,230,2013-08-07 12:52:00
9:16 AM,73.4,73.4,100,29.97,0.5,SW,6.9,-,N/A,,Overcast,220,2013-08-07 13:16:00
9:30 AM,73.4,73.4,100,29.96,1.0,Calm,Calm,-,N/A,,Overcast,0,2013-08-07 13:30:00
9:38 AM,73.4,73.4,100,29.96,2.0,Calm,Calm,-,N/A,,Overcast,0,2013-08-07 13:38:00
9:52 AM,73.0,73.0,100,29.94,2.5,Variable,3.5,-,N/A,,Overcast,0,2013-08-07 13:52:00
10:16 AM,75.2,73.4,94,29.96,2.5,South,8.1,-,N/A,,Overcast,180,2013-08-07 14:16:00
10:35 AM,78.8,73.4,83,29.97,5.0,South,8.1,-,N/A,,Haze,190,2013-08-07 14:35:00
10:52 AM,78.1,72.0,81,29.94,6.0,WSW,9.2,-,N/A,,Haze,240,2013-08-07 14:52:00
11:52 AM,79.0,73.0,82,29.94,7.0,SSW,4.6,-,N/A,,Overcast,210,2013-08-07 15:52:00
12:29 PM,78.8,71.6,78,29.96,6.0,SW,5.8,-,N/A,,Haze,220,2013-08-07 16:29:00
12:52 PM,79.0,73.0,82,29.94,7.0,SSW,8.1,-,N/A,,Overcast,210,2013-08-07 16:52:00
1:52 PM,79.0,73.0,82,29.93,9.0,SW,4.6,-,N/A,,Overcast,220,2013-08-07 17:52:00
2:52 PM,81.0,73.0,77,29.92,10.0,South,4.6,-,N/A,,Mostly Cloudy,180,2013-08-07 18:52:00
3:52 PM,82.0,72.0,71,29.90,10.0,SSW,9.2,-,N/A,,Mostly Cloudy,200,2013-08-07 19:52:00
4:52 PM,82.9,73.0,72,29.87,10.0,SW,8.1,-,N/A,,Mostly Cloudy,220,2013-08-07 20:52:00
5:52 PM,82.9,73.0,72,29.87,10.0,SSW,8.1,-,N/A,,Mostly Cloudy,200,2013-08-07 21:52:00
6:52 PM,82.0,73.9,76,29.88,10.0,Calm,Calm,-,N/A,,Mostly Cloudy,0,2013-08-07 22:52:00
7:52 PM,82.9,73.0,72,29.87,10.0,Calm,Calm,-,N/A,,Mostly Cloudy,0,2013-08-07 23:52:00
8:52 PM,77.0,75.0,94,29.88,8.0,Calm,Calm,-,N/A,,Scattered Clouds,0,2013-08-08 00:52:00
9:52 PM,75.0,73.0,94,29.90,9.0,SSE,3.5,-,N/A,,Scattered Clouds,160,2013-08-08 01:52:00
10:52 PM,75.9,73.9,94,29.91,9.0,SSW,5.8,-,N/A,,Scattered Clouds,210,2013-08-08 02:52:00
11:52 PM,75.0,73.0,94,29.91,7.0,SSW,6.9,-,N/A,,Partly Cloudy,200,2013-08-08 03:52:00